Hourly Weather Roundup
Issued by NWS Central Illinois

Home | Current Version | Previous Version | Graphics & Text | Print | Product List | Glossary On
Versions: 1 2 3 4 5 6 7 8 9 10 11 12 13 14 15 16 17 18 19 20 21 22 23 24 25 26 27 28 29 30 31 32 33 34 35 36 37 38 39 40 41 42 43 44 45 46 47 48 49 50
808
NZUS43 KILX 221610
HWRILX

Area Weather Roundup
National Weather Service Lincoln IL
1000 AM CST THU FEB 22 2018

NOTE:  "FAIR" indicates few or no clouds below 12,000 feet, with
       no sigificant weather and/or obstructions to visibility.


CITY           SKY/WX    TMP DP  RH WIND       PRES   REMARKS
Bloomington    LGT RAIN  33  32  96 NE21      30.44F WCI  21
Champaign      CLOUDY    39  38  96 NE21      30.41F WCI  29
Danville       CLOUDY    38  36  92 E16       30.43F WCI  28
Decatur        CLOUDY    40  38  93 E17G26    30.40F WCI  31
Effingham      CLOUDY    43  42  95 NE10      30.41R
Flora          CLOUDY    44  42  93 E7        30.39S FOG
Galesburg      CLOUDY    33  31  89 NE12G18   30.46F WCI  25
Jacksonville   MIX PCPN  33  32  96 NE10      30.41S WCI  25
Lacon          CLOUDY    34  32  92 E10G17    30.49R WCI  26
Lawrenceville  CLOUDY    46  43  89 E16       30.38F
Litchfield     CLOUDY    38  38  99 E9        30.39R FOG     WCI  32
$$


CITY           SKY/WX    TMP DP  RH WIND       PRES   REMARKS
Lincoln        CLOUDY    38  37  94 NE17      30.43F WCI  29
Macomb         CLOUDY    32  31  95 NE14      30.46F WCI  22
Mattoon        CLOUDY    40  38  93 E20       30.39F WCI  30
Mt Carmel AP   CLOUDY    45  43  95 E14       30.38S
Olney-Noble AP CLOUDY    43  41  93 NE12      30.39S
Paris AP       CLOUDY    38  37  96 NE13G24   30.43F WCI  30
Peoria         CLOUDY    35  32  88 NE17      30.45F WCI  25
Pontiac        CLOUDY    34  34  99 NE10      30.49F WCI  26
Rantoul        CLOUDY    40  38  91 E23       30.44F WCI  30
Robinson       CLOUDY    43  41  93 E14       30.40F
Springfield    CLOUDY    38  36  92 E13       30.42F FOG     WCI  30
Taylorville    CLOUDY    39  37  95 E14G20    30.41R WCI  30
$$

...REGIONAL REPORTS...


CITY           SKY/WX    TMP DP  RH WIND       PRES   REMARKS
Chicago O`Hare PTSUNNY   37  29  72 E14       30.54F WCI  28
Kankakee       CLOUDY    35  32  89 E14       30.51F WCI  26
Moline         CLOUDY    33  25  72 NE14      30.49S WCI  23
Mount Sterling CLOUDY    32  31  97 NE3       30.42R FOG
Mount Vernon   CLOUDY    43  41  93 NE8       30.39R FOG
Pittsfield     CLOUDY    33  32  99 NE3       30.43R FOG
Quincy         CLOUDY    32  30  92 NE9       30.42S FOG     WCI  24
Rockford       CLOUDY    33  24  69 NE15G21   30.56S WCI  23
$$


CITY           SKY/WX    TMP DP  RH WIND       PRES   REMARKS
Burlington     CLOUDY    31  27  85 NE12      30.45F WCI  22
Cedar Rapids   CLOUDY    30  19  63 E16       30.47F WCI  19
Des Moines     FLURRIES  26  21  81 E12       30.44S WCI  16
Kirksville     CLOUDY    29  29 100 E9        30.42S FOG     WCI  20
Ottumwa        CLOUDY    29  25  85 E14       30.44F FOG     WCI  18
St Louis       DRIZZLE   37  37 100 CALM      30.40F FOG
$$


CITY           SKY/WX    TMP DP  RH WIND       PRES   REMARKS
Terre Haute    CLOUDY    42  39  89 E15       30.42R WCI  34
Evansville     CLOUDY    45  44  97 E9        30.39R
Indianapolis   PTSUNNY   39  35  86 NE16G23   30.44F WCI  30
Lafayette      CLOUDY    37  36  96 E18       30.47F WCI  27
Madison        CLOUDY    27  20  75 E10       30.59S WCI  17
Milwaukee      PTSUNNY   33  27  78 NE13      30.60F WCI  24
$$






USA.gov is the U.S. government's official web portal to all federal, state and local government web resources and services.